CW4114 Weather Reports


Display with metric or nautical units.
time (UTC)temp
F
wind
direction
speed
MPH
gust
MPH
rain 1hr
in
rain 24hr
in
rain mn
in
humidity
%
barometer
mb
20180523111516 54 271 5.0 9.0 0.00 0.00 0.00 87 1018.6
20180523111015 54 285 5.0 7.0 0.00 0.00 0.00 88 1018.5
20180523110515 53 245 5.0 7.0 0.00 0.00 0.00 88 1018.5
20180523110016 53 274 4.0 10.0 0.00 0.00 0.00 89 1018.5
20180523105520 53 265 4.0 10.0 0.00 0.00 0.00 89 1018.4
20180523105016 53 261 4.0 9.0 0.00 0.00 0.00 89 1018.4
20180523104513 52 271 4.0 10.0 0.00 0.00 0.00 90 1018.4
20180523104015 52 252 5.0 11.0 0.00 0.00 0.00 90 1018.4
20180523103514 52 272 6.0 11.0 0.00 0.00 0.00 90 1018.4
20180523103014 52 264 6.0 10.0 0.00 0.00 0.00 90 1018.4
20180523102514 52 257 5.0 9.0 0.00 0.00 0.00 90 1018.3
20180523102015 52 255 5.0 9.0 0.00 0.00 0.00 90 1018.3
20180523101517 52 265 6.0 10.0 0.00 0.00 0.00 89 1018.3
20180523101015 52 258 6.0 10.0 0.00 0.00 0.00 89 1018.2
20180523100513 52 286 4.0 10.0 0.00 0.00 0.00 88 1018.1
20180523100015 52 283 6.0 11.0 0.00 0.00 0.00 88 1018.2
20180523095513 52 276 5.0 12.0 0.00 0.00 0.00 88 1018.1
20180523095012 53 272 6.0 12.0 0.00 0.00 0.00 87 1018.1
20180523094513 53 310 6.0 10.0 0.00 0.00 0.00 87 1017.9
20180523094013 53 264 6.0 10.0 0.00 0.00 0.00 86 1018.0
20180523093512 53 268 5.0 11.0 0.00 0.00 0.00 86 1017.9
20180523093016 54 261 7.0 12.0 0.00 0.00 0.00 86 1017.8
20180523092512 54 261 6.0 13.0 0.00 0.00 0.00 86 1017.8
20180523092018 54 255 6.0 13.0 0.00 0.00 0.00 87 1017.8
20180523091511 54 307 6.0 11.0 0.00 0.00 0.00 87 1017.8
20180523091013 54 268 5.0 12.0 0.00 0.00 0.00 88 1017.8
20180523090511 54 269 5.0 14.0 0.00 0.00 0.00 88 1017.8
20180523090011 54 309 4.0 14.0 0.00 0.00 0.00 88 1017.8
20180523085511 54 279 6.0 13.0 0.00 0.00 0.00 88 1017.7
20180523085012 53 278 5.0 12.0 0.00 0.00 0.00 88 1017.7
20180523084511 53 261 5.0 10.0 0.00 0.00 0.00 89 1017.6
20180523084011 53 290 3.0 11.0 0.00 0.00 0.00 88 1017.5
20180523083511 53 261 4.0 10.0 0.00 0.00 0.00 89 1017.5
20180523083010 53 281 3.0 9.0 0.00 0.00 0.00 89 1017.5
20180523082510 52 286 3.0 9.0 0.00 0.00 0.00 89 1017.6
20180523082010 52 296 2.0 5.0 0.00 0.00 0.00 88 1017.5
20180523081511 52 293 2.0 5.0 0.00 0.00 0.00 88 1017.4
20180523081009 52 295 1.0 5.0 0.00 0.00 0.00 88 1017.4
20180523080516 52 289 2.0 6.0 0.00 0.00 0.00 88 1017.3
20180523080009 52 265 4.0 6.0 0.00 0.00 0.00 88 1017.2
20180523075510 52 262 4.0 5.0 0.00 0.00 0.00 88 1017.1
20180523075009 51 267 2.0 4.0 0.00 0.00 0.00 88 1017.0
20180523074510 51 312 2.0 4.0 0.00 0.00 0.00 88 1017.1
20180523074008 51 319 1.0 4.0 0.00 0.00 0.00 88 1016.9
20180523073510 51 274 2.0 5.0 0.00 0.00 0.00 88 1017.0
20180523073008 51 275 2.0 5.0 0.00 0.00 0.00 88 1016.9
20180523072511 51 269 2.0 4.0 0.00 0.00 0.00 87 1016.8
20180523072008 51 267 2.0 3.0 0.00 0.00 0.00 87 1016.8
20180523071508 51 264 1.0 5.0 0.00 0.00 0.00 88 1016.8
20180523071008 51 244 3.0 5.0 0.00 0.00 0.00 88 1016.9
20180523070508 51 261 2.0 4.0 0.00 0.00 0.00 88 1016.8
20180523070009 51 279 2.0 4.0 0.00 0.00 0.00 88 1016.8
20180523065508 51 306 0.0 4.0 0.00 0.00 0.00 88 1016.8
20180523065007 51 274 2.0 4.0 0.00 0.00 0.00 88 1016.8
20180523064512 51 276 2.0 6.0 0.00 0.00 0.00 88 1016.8
20180523064009 51 275 2.0 6.0 0.00 0.00 0.00 88 1016.8
20180523063507 50 272 2.0 4.0 0.00 0.00 0.00 88 1016.9
20180523063006 50 302 1.0 5.0 0.00 0.00 0.00 88 1017.0
20180523062507 50 272 2.0 6.0 0.00 0.00 0.00 88 1016.8
20180523062005 50 268 4.0 6.0 0.00 0.00 0.00 89 1016.8
20180523061504 50 257 3.0 5.0 0.00 0.00 0.00 89 1016.8
20180523061008 50 261 3.0 4.0 0.00 0.00 0.00 89 1016.8
20180523060502 50 269 3.0 4.0 0.00 0.00 0.00 89 1016.8
20180523060009 50 269 2.0 3.0 0.00 0.00 0.00 89 1016.8
20180523055503 50 257 2.0 3.0 0.00 0.00 0.00 89 1016.8
20180523055002 50 272 2.0 3.0 0.00 0.00 0.00 89 1016.9
20180523054502 50 267 2.0 3.0 0.00 0.00 0.00 88 1016.9
20180523054002 50 271 1.0 2.0 0.00 0.00 0.00 88 1016.8
20180523053502 51 276 1.0 2.0 0.00 0.00 0.00 87 1016.9
20180523053002 51 276 1.0 1.0 0.00 0.00 0.00 87 1016.8
20180523052510 51 292 0.0 0.0 0.00 0.00 0.00 87 1016.9
20180523052003 51 293 0.0 0.0 0.00 0.00 0.00 86 1016.9
20180523051501 52 293 0.0 0.0 0.00 0.00 0.00 86 1016.9
20180523051002 52 310 0.0 3.0 0.00 0.00 0.00 85 1016.8
20180523050502 52 305 1.0 3.0 0.00 0.00 0.00 85 1016.9
20180523050002 53 333 1.0 3.0 0.00 0.00 0.00 84 1016.9
20180523045503 53 38 1.0 2.0 0.00 0.00 0.00 83 1016.8
20180523045002 53 312 0.0 3.0 0.00 0.00 0.00 83 1016.8
20180523044507 53 316 1.0 3.0 0.00 0.00 0.00 82 1016.7
20180523044003 53 327 1.0 2.0 0.00 0.00 0.00 82 1016.6
20180523043502 54 18 0.0 0.0 0.00 0.00 0.00 81 1016.5
20180523043002 54 290 0.0 3.0 0.00 0.00 0.00 81 1016.5
20180523042502 54 276 1.0 3.0 0.00 0.00 0.00 80 1016.5
20180523042003 55 272 1.0 4.0 0.00 0.00 0.00 80 1016.4
20180523041504 55 271 2.0 5.0 0.00 0.00 0.00 80 1016.4
20180523041002 55 267 3.0 5.0 0.00 0.00 0.00 80 1016.4
20180523040502 55 259 3.0 6.0 0.00 0.00 0.00 80 1016.3
20180523040009 55 258 4.0 6.0 0.00 0.00 0.00 81 1016.2
20180523035503 55 265 4.0 6.0 0.00 0.00 0.00 80 1016.2
20180523035002 55 267 3.0 5.0 0.00 0.00 0.00 80 1016.2
20180523034502 55 290 2.0 3.0 0.00 0.00 0.00 79 1016.1
20180523034004 55 279 0.0 3.0 0.00 0.00 0.00 79 1016.1
20180523033502 55 262 0.0 5.0 0.00 0.00 0.00 78 1016.1
20180523033002 55 262 0.0 6.0 0.00 0.00 0.00 79 1015.9
20180523032502 55 259 4.0 6.0 0.00 0.00 0.00 79 1016.0
20180523032004 55 272 4.0 5.0 0.00 0.00 0.00 79 1016.0
20180523031506 55 271 3.0 5.0 0.00 0.00 0.00 79 1016.1
20180523031000 55 267 3.0 5.0 0.00 0.00 0.00 79 1016.0
20180523030500 55 285 3.0 4.0 0.00 0.00 0.00 78 1016.0
20180523030001 56 257 1.0 3.0 0.00 0.00 0.00 78 1016.0
20180523025500 56 245 1.0 2.0 0.00 0.00 0.00 77 1015.9
20180523025001 56 254 0.0 3.0 0.00 0.00 0.00 77 1015.9
20180523024500 56 296 0.0 3.0 0.00 0.00 0.00 77 1015.9
20180523024000 57 295 1.0 2.0 0.00 0.00 0.00 77 1015.9
20180523023504 57 303 1.0 2.0 0.00 0.00 0.00 77 1015.9
20180523023000 57 290 0.0 3.0 0.00 0.00 0.00 77 1015.9
20180523022501 56 320 1.0 3.0 0.00 0.00 0.00 76 1015.8
20180523022000 56 324 1.0 3.0 0.00 0.00 0.00 76 1015.7
20180523021459 57 302 0.0 2.0 0.00 0.00 0.00 75 1015.7
20180523021001 57 259 0.0 2.0 0.00 0.00 0.00 75 1015.6
20180523020458 57 259 0.0 2.0 0.00 0.00 0.00 74 1015.6
20180523015958 58 259 1.0 2.0 0.00 0.00 0.00 74 1015.7
20180523015458 58 307 0.0 3.0 0.00 0.00 0.00 74 1015.6
20180523015004 58 313 1.0 3.0 0.00 0.00 0.00 74 1015.6
20180523014458 58 310 0.0 3.0 0.00 0.00 0.00 74 1015.6
20180523013958 58 341 1.0 5.0 0.00 0.00 0.00 74 1015.6
20180523013458 58 331 1.0 4.0 0.00 0.00 0.00 75 1015.6
20180523012958 58 330 1.0 3.0 0.00 0.00 0.00 75 1015.6
20180523012456 58 319 1.0 3.0 0.00 0.00 0.00 75 1015.4
20180523011955 58 326 1.0 3.0 0.00 0.00 0.00 76 1015.3
20180523011455 58 319 2.0 3.0 0.00 0.00 0.00 78 1015.4
20180523010954 59 330 0.0 2.0 0.00 0.00 0.00 78 1015.3
20180523010454 59 317 0.0 1.0 0.00 0.00 0.00 78 1015.3
20180523005956 60 54 0.0 1.0 0.00 0.00 0.00 77 1015.1
20180523005453 60 54 0.0 1.0 0.00 0.00 0.00 76 1015.1
20180523004953 60 55 0.0 0.0 0.00 0.00 0.00 74 1015.1
20180523004453 60 56 0.0 0.0 0.00 0.00 0.00 73 1014.9
20180523003952 60 56 0.0 0.0 0.00 0.00 0.00 73 1014.9
20180523003451 61 56 0.0 0.0 0.00 0.00 0.00 72 1014.8
20180523002952 61 56 0.0 0.0 0.00 0.00 0.00 71 1014.8
20180523002452 61 56 0.0 0.0 0.00 0.00 0.00 69 1014.8
20180523001955 61 56 0.0 0.0 0.00 0.00 0.00 69 1014.6
20180523001456 61 58 0.0 0.0 0.00 0.00 0.00 69 1014.7
20180523000949 61 56 0.0 1.0 0.00 0.00 0.00 68 1014.7
20180523000450 61 56 0.0 1.0 0.00 0.00 0.00 69 1014.8
20180522235947 61 58 0.0 1.0 0.00 0.00 0.00 68 1014.7
20180522235448 61 59 0.0 2.0 0.00 0.00 0.00 68 1014.7
20180522234945 62 58 1.0 2.0 0.00 0.00 0.00 68 1014.7
20180522234446 62 61 0.0 2.0 0.00 0.00 0.00 67 1014.7
20180522233945 62 61 0.0 1.0 0.00 0.00 0.00 66 1014.8
20180522233451 62 61 0.0 2.0 0.00 0.00 0.00 66 1014.7
20180522232944 62 59 1.0 2.0 0.00 0.00 0.00 66 1014.7
20180522232444 62 61 0.0 2.0 0.00 0.00 0.00 64 1014.7
20180522231943 62 59 1.0 2.0 0.00 0.00 0.00 65 1014.7
20180522231442 63 56 1.0 2.0 0.00 0.00 0.00 64 1014.8
20180522230941 63 40 1.0 2.0 0.00 0.00 0.00 64 1014.8
20180522230441 63 54 0.0 3.0 0.00 0.00 0.00 64 1014.8
20180522225939 63 58 1.0 3.0 0.00 0.00 0.00 63 1014.7
20180522225440 64 71 2.0 3.0 0.00 0.00 0.00 63 1014.8
20180522224943 64 58 2.0 3.0 0.00 0.00 0.00 63 1014.8
20180522224438 63 56 1.0 3.0 0.00 0.00 0.00 63 1014.7
20180522223937 63 58 1.0 4.0 0.00 0.00 0.00 64 1014.8
20180522223437 63 72 2.0 4.0 0.00 0.00 0.00 64 1014.8
20180522222936 63 59 2.0 3.0 0.00 0.00 0.00 64 1014.7
20180522222435 63 73 2.0 3.0 0.00 0.00 0.00 65 1014.8
20180522221934 63 69 2.0 4.0 0.00 0.00 0.00 66 1014.7
20180522221435 63 75 2.0 4.0 0.00 0.00 0.00 66 1014.7
20180522220932 63 78 2.0 3.0 0.00 0.00 0.00 66 1014.7
20180522220437 62 72 2.0 3.0 0.00 0.00 0.00 66 1014.8
20180522215931 62 76 2.0 4.0 0.00 0.00 0.00 68 1014.7
20180522215432 62 66 3.0 4.0 0.00 0.00 0.00 68 1014.7
20180522214935 61 63 2.0 4.0 0.00 0.00 0.00 69 1014.6
20180522214431 61 45 1.0 4.0 0.00 0.00 0.00 70 1014.7
20180522213932 60 44 2.0 5.0 0.00 0.00 0.00 70 1014.5
20180522213431 60 14 4.0 5.0 0.00 0.00 0.00 68 1014.7
20180522212936 61 18 2.0 5.0 0.00 0.00 0.00 70 1014.6
20180522212431 60 21 2.0 5.0 0.00 0.00 0.00 72 1014.6
20180522211931 59 34 3.0 6.0 0.00 0.00 0.00 71 1014.8
20180522211431 60 4 4.0 5.0 0.00 0.00 0.00 70 1014.8
20180522210932 60 48 2.0 4.0 0.00 0.00 0.00 69 1014.7
20180522210431 60 7 1.0 6.0 0.00 0.00 0.00 70 1014.7
20180522205931 60 34 4.0 6.0 0.00 0.00 0.00 70 1014.7
20180522205430 60 337 2.0 4.0 0.00 0.00 0.00 68 1014.8
20180522204929 59 25 2.0 4.0 0.00 0.00 0.00 69 1014.7
20180522204433 60 19 1.0 3.0 0.00 0.00 0.00 68 1014.8
20180522203927 59 41 1.0 3.0 0.00 0.00 0.00 68 1014.9
20180522203428 59 59 1.0 3.0 0.00 0.00 0.00 68 1014.9
20180522202928 60 21 1.0 3.0 0.00 0.00 0.00 66 1014.9
20180522202427 60 30 1.0 4.0 0.00 0.00 0.00 64 1015.1
20180522201926 59 27 2.0 4.0 0.00 0.00 0.00 69 1015.1
20180522201426 58 86 2.0 3.0 0.00 0.00 0.00 67 1015.1
20180522200926 56 55 2.0 4.0 0.00 0.00 0.00 65 1015.1
20180522200427 56 121 2.0 5.0 0.00 0.00 0.00 62 1015.2
20180522195933 56 78 2.0 5.0 0.00 0.00 0.00 63 1015.2
20180522195425 56 42 2.0 4.0 0.00 0.00 0.00 63 1015.3
20180522194921 56 31 1.0 4.0 0.00 0.00 0.00 62 1015.2
20180522194423 56 45 2.0 5.0 0.00 0.00 0.00 61 1015.2
20180522193921 55 103 2.0 5.0 0.00 0.00 0.00 66 1015.3
20180522193420 54 90 3.0 5.0 0.00 0.00 0.00 67 1015.3
20180522192920 54 32 3.0 5.0 0.00 0.00 0.00 64 1015.3
20180522192420 55 24 3.0 5.0 0.00 0.00 0.00 63 1015.4
20180522191920 55 11 1.0 5.0 0.00 0.00 0.00 62 1015.5
20180522191426 54 51 2.0 5.0 0.00 0.00 0.00 65 1015.4
20180522190923 54 9 2.0 6.0 0.00 0.00 0.00 65 1015.4
20180522190420 54 82 4.0 6.0 0.00 0.00 0.00 71 1015.5
20180522185919 55 68 3.0 6.0 0.00 0.00 0.00 66 1015.5
20180522185419 56 37 4.0 6.0 0.00 0.00 0.00 67 1015.5
20180522184918 58 79 4.0 6.0 0.00 0.00 0.00 62 1015.6
20180522184416 58 38 2.0 4.0 0.00 0.00 0.00 65 1015.6
20180522183916 58 9 2.0 5.0 0.00 0.00 0.00 65 1015.6
20180522183417 57 18 2.0 5.0 0.00 0.00 0.00 61 1015.7
20180522182916 57 21 2.0 5.0 0.00 0.00 0.00 63 1015.7
20180522182418 56 28 3.0 4.0 0.00 0.00 0.00 63 1015.8
20180522181914 56 41 2.0 4.0 0.00 0.00 0.00 68 1015.8
20180522181414 55 54 2.0 5.0 0.00 0.00 0.00 68 1015.8
20180522180913 54 17 3.0 5.0 0.00 0.00 0.00 68 1015.9
20180522180414 53 348 2.0 6.0 0.00 0.00 0.00 68 1015.9
20180522175914 53 21 4.0 6.0 0.00 0.00 0.00 67 1015.9
20180522175410 52 31 3.0 5.0 0.00 0.00 0.00 67 1015.9
20180522174910 53 15 3.0 5.0 0.00 0.00 0.00 68 1015.9
20180522174408 53 40 2.0 6.0 0.00 0.00 0.00 72 1015.8
20180522173913 54 21 3.0 6.0 0.00 0.00 0.00 65 1015.8
20180522173407 55 19 4.0 6.0 0.00 0.00 0.00 65 1015.9
20180522172906 56 24 3.0 5.0 0.00 0.00 0.00 66 1015.9
20180522172407 55 28 1.0 4.0 0.00 0.00 0.00 68 1015.9
20180522171906 53 85 2.0 6.0 0.00 0.00 0.00 69 1016.0
20180522171406 54 35 4.0 6.0 0.00 0.00 0.00 66 1016.0
20180522170905 56 21 4.0 6.0 0.00 0.00 0.00 63 1016.0
20180522170405 58 71 2.0 4.0 0.00 0.00 0.00 68 1016.0
20180522165905 57 65 2.0 5.0 0.00 0.00 0.00 69 1016.1
20180522165409 57 62 2.0 5.0 0.00 0.00 0.00 65 1016.1
20180522164902 57 21 2.0 3.0 0.00 0.00 0.00 65 1016.2
20180522164402 56 58 2.0 4.0 0.00 0.00 0.00 64 1016.2
20180522163902 57 61 2.0 4.0 0.00 0.00 0.00 64 1016.2
20180522163402 56 56 2.0 4.0 0.00 0.00 0.00 70 1016.3
20180522162904 55 61 2.0 4.0 0.00 0.00 0.00 68 1016.4
20180522162403 55 45 3.0 5.0 0.00 0.00 0.00 65 1016.4
20180522161902 56 21 3.0 5.0 0.00 0.00 0.00 70 1016.4
20180522161411 56 95 2.0 5.0 0.00 0.00 0.00 70 1016.3
20180522160907 59 75 3.0 6.0 0.00 0.00 0.00 63 1016.3
20180522160402 59 58 3.0 4.0 0.00 0.00 0.00 59 1016.3
20180522155903 60 55 2.0 4.0 0.00 0.00 0.00 66 1016.3
20180522155402 59 68 3.0 4.0 0.00 0.00 0.00 64 1016.2
20180522154902 58 71 2.0 4.0 0.00 0.00 0.00 66 1016.2
20180522154405 58 49 2.0 3.0 0.00 0.00 0.00 68 1016.3
20180522153902 56 313 0.0 3.0 0.00 0.00 0.00 68 1016.3
20180522153402 54 221 0.0 4.0 0.00 0.00 0.00 70 1016.3
20180522152907 53 92 1.0 4.0 0.00 0.00 0.00 71 1016.4
20180522152402 52 181 1.0 3.0 0.00 0.00 0.00 72 1016.4
20180522151902 51 8 1.0 4.0 0.00 0.00 0.00 75 1016.3
20180522151404 51 14 1.0 5.0 0.00 0.00 0.00 74 1016.3
20180522150902 51 45 3.0 5.0 0.00 0.00 0.00 80 1016.3
20180522150406 49 38 1.0 6.0 0.00 0.00 0.00 78 1016.3
20180522145904 49 35 3.0 5.0 0.00 0.00 0.00 78 1016.3
20180522145402 51 34 3.0 5.0 0.00 0.00 0.00 77 1016.2
20180522144902 51 56 2.0 4.0 0.00 0.00 0.00 76 1016.0
20180522144408 51 19 2.0 3.0 0.00 0.00 0.00 73 1016.1
20180522143902 51 350 1.0 3.0 0.00 0.00 0.00 75 1016.1
20180522143356 50 320 0.0 2.0 0.00 0.00 0.00 77 1015.9
20180522142857 49 300 0.0 3.0 0.00 0.00 0.00 80 1015.9
20180522142356 49 320 0.0 4.0 0.00 0.00 0.00 79 1016.1
20180522141857 49 334 1.0 5.0 0.00 0.00 0.00 77 1016.0
20180522141357 50 19 3.0 5.0 0.00 0.00 0.00 76 1016.1
20180522140903 51 34 4.0 5.0 0.00 0.00 0.00 78 1016.0
20180522140354 50 264 0.0 1.0 0.00 0.00 0.00 80 1016.0
20180522135852 49 264 0.0 2.0 0.00 0.00 0.00 82 1016.0
20180522135350 49 264 0.0 2.0 0.00 0.00 0.00 83 1016.1
20180522134849 48 118 0.0 0.0 0.00 0.00 0.00 84 1016.0
20180522134348 47 117 0.0 1.0 0.00 0.00 0.00 84 1016.1
20180522133850 47 118 0.0 2.0 0.00 0.00 0.00 84 1016.1
20180522133345 47 114 1.0 3.0 0.00 0.00 0.00 83 1016.0
20180522132846 47 87 2.0 3.0 0.00 0.00 0.00 84 1016.1
20180522132345 47 89 1.0 3.0 0.00 0.00 0.00 85 1016.0
20180522131850 47 58 1.0 3.0 0.00 0.00 0.00 85 1016.0
20180522131347 47 45 1.0 3.0 0.00 0.00 0.00 84 1016.0
20180522130914 47 65 2.0 3.0 0.00 0.00 0.00 84 1016.0
20180522130343 48 59 2.0 4.0 0.00 0.00 0.00 83 1016.0
20180522125842 48 61 2.0 3.0 0.00 0.00 0.00 84 1016.0
20180522125343 48 37 0.0 1.0 0.00 0.00 0.00 85 1016.1
20180522124842 47 320 0.0 0.0 0.00 0.00 0.00 84 1016.0
20180522124342 47 82 0.0 3.0 0.00 0.00 0.00 84 1016.0
20180522123845 47 78 0.0 3.0 0.00 0.00 0.00 85 1016.0
20180522123341 47 79 1.0 4.0 0.00 0.00 0.00 84 1016.0
20180522122841 47 78 2.0 3.0 0.00 0.00 0.00 84 1016.0
20180522122342 46 52 1.0 3.0 0.00 0.00 0.00 84 1016.0
20180522121840 46 59 0.0 4.0 0.00 0.00 0.00 84 1016.1
20180522121340 47 79 2.0 4.0 0.00 0.00 0.00 84 1016.1
20180522120839 47 79 3.0 5.0 0.00 0.00 0.00 85 1016.2
20180522120338 47 66 2.0 5.0 0.00 0.00 0.00 86 1016.1
20180522115837 47 25 2.0 4.0 0.00 0.00 0.00 87 1016.1
20180522115340 47 52 3.0 4.0 0.00 0.00 0.00 86 1016.1
20180522114836 48 71 3.0 4.0 0.00 0.00 0.00 86 1016.0
20180522114337 48 58 2.0 3.0 0.00 0.00 0.00 86 1015.9
20180522113837 48 25 1.0 2.0 0.00 0.00 0.00 86 1015.8
20180522113334 48 34 0.0 2.0 0.00 0.00 0.00 85 1015.9
20180522112835 48 314 0.0 2.0 0.00 0.00 0.00 86 1015.9
20180522112335 48 324 1.0 2.0 0.00 0.00 0.00 86 1015.9